• In Deutschland
  • Länderverzeichnis
  • Für 7 Tage
  • Wassertemperatur
  • Satellitenkarten
  • Wetterkarte
  • Widgets
  • user-avatar
    Anmelden

    Stündliche Wetter Oranienburg

    Heute, 23 September, Sonntag

    Zeit Temperatur Niederschläge Wind Luftdruck Luftfeuchtigkeit
    00:00 +11°C° 0.1 mm 4 m/S 758 mmHg 80%
    01:00 +11°C° 0 mm 3 m/S 758 mmHg 86%
    02:00 +10°C° 0 mm 3 m/S 758 mmHg 88%
    03:00 +10°C° 0 mm 3 m/S 758 mmHg 90%
    04:00 +9°C° 0 mm 3 m/S 757 mmHg 92%
    05:00 +9°C° 0 mm 3 m/S 757 mmHg 91%
    06:00 +9°C° 0 mm 3 m/S 757 mmHg 91%
    07:00 +10°C° 0 mm 2 m/S 757 mmHg 88%
    08:00 +12°C° 0 mm 2 m/S 757 mmHg 82%
    09:00 +13°C° 0 mm 2 m/S 757 mmHg 76%
    10:00 +14°C° 0 mm 2 m/S 756 mmHg 70%
    11:00 +13°C° 0.5 mm 2 m/S 756 mmHg 71%
    12:00 +13°C° 0.5 mm 1 m/S 755 mmHg 73%
    13:00 +13°C° 0.5 mm 1 m/S 755 mmHg 75%
    14:00 +13°C° 1.7 mm 2 m/S 754 mmHg 79%
    15:00 +12°C° 1.7 mm 2 m/S 753 mmHg 84%
    16:00 +10°C° 1.7 mm 2 m/S 752 mmHg 89%
    17:00 +10°C° 1.3 mm 2 m/S 752 mmHg 90%
    18:00 +10°C° 1.3 mm 3 m/S 752 mmHg 91%
    19:00 +9°C° 1.3 mm 3 m/S 752 mmHg 92%
    20:00 +8°C° 0.4 mm 4 m/S 753 mmHg 90%
    21:00 +10°C° 0.4 mm 4 m/S 753 mmHg 88%
    22:00 +9°C° 0.4 mm 5 m/S 754 mmHg 86%
    23:00 +9°C° 0.1 mm 5 m/S 755 mmHg 85%

    Morgen, 24 September, Montag

    Zeit Temperatur Niederschläge Wind Luftdruck Luftfeuchtigkeit
    00:00 +8°C° 0.1 mm 5 m/S 756 mmHg 84%
    01:00 +8°C° 0.1 mm 5 m/S 757 mmHg 82%
    02:00 +8°C° 0 mm 5 m/S 758 mmHg 82%
    03:00 +7°C° 0 mm 6 m/S 758 mmHg 83%
    04:00 +7°C° 0 mm 6 m/S 759 mmHg 83%
    05:00 +7°C° 0 mm 6 m/S 760 mmHg 81%
    06:00 +7°C° 0 mm 6 m/S 760 mmHg 79%
    07:00 +6°C° 0 mm 7 m/S 761 mmHg 77%
    08:00 +7°C° 0 mm 8 m/S 762 mmHg 69%
    09:00 +10°C° 0 mm 8 m/S 762 mmHg 60%
    10:00 +11°C° 0 mm 9 m/S 763 mmHg 52%
    11:00 +11°C° 0 mm 9 m/S 763 mmHg 48%
    12:00 +12°C° 0 mm 9 m/S 764 mmHg 44%
    13:00 +12°C° 0 mm 9 m/S 764 mmHg 40%
    14:00 +12°C° 0 mm 9 m/S 765 mmHg 41%
    15:00 +12°C° 0 mm 8 m/S 765 mmHg 41%
    16:00 +12°C° 0 mm 8 m/S 765 mmHg 41%
    17:00 +11°C° 0 mm 7 m/S 766 mmHg 46%
    18:00 +9°C° 0 mm 5 m/S 766 mmHg 51%
    19:00 +8°C° 0 mm 4 m/S 767 mmHg 56%
    20:00 +8°C° 0 mm 4 m/S 768 mmHg 58%
    21:00 +7°C° 0 mm 4 m/S 768 mmHg 60%
    22:00 +7°C° 0 mm 4 m/S 769 mmHg 62%
    23:00 +7°C° 0 mm 4 m/S 770 mmHg 65%

    übermorgen, 25 September, Dienstag

    Zeit Temperatur Niederschläge Wind Luftdruck Luftfeuchtigkeit
    00:00 +6°C° 0 mm 4 m/S 770 mmHg 67%
    01:00 +6°C° 0 mm 4 m/S 770 mmHg 70%
    02:00 +6°C° 0 mm 4 m/S 771 mmHg 72%
    03:00 +5°C° 0 mm 4 m/S 771 mmHg 74%
    04:00 +5°C° 0 mm 4 m/S 771 mmHg 75%
    05:00 +5°C° 0 mm 4 m/S 771 mmHg 76%
    06:00 +5°C° 0 mm 4 m/S 772 mmHg 76%
    07:00 +5°C° 0 mm 3 m/S 772 mmHg 76%
    08:00 +7°C° 0 mm 4 m/S 772 mmHg 68%
    09:00 +10°C° 0 mm 4 m/S 773 mmHg 60%
    10:00 +12°C° 0 mm 4 m/S 773 mmHg 52%
    11:00 +12°C° 0 mm 4 m/S 773 mmHg 49%
    12:00 +13°C° 0 mm 4 m/S 773 mmHg 46%
    13:00 +14°C° 0 mm 3 m/S 773 mmHg 43%
    14:00 +14°C° 0 mm 3 m/S 773 mmHg 45%
    15:00 +14°C° 0 mm 3 m/S 773 mmHg 46%
    16:00 +13°C° 0 mm 3 m/S 773 mmHg 47%
    17:00 +13°C° 0 mm 2 m/S 773 mmHg 53%
    18:00 +12°C° 0 mm 2 m/S 773 mmHg 59%
    19:00 +10°C° 0 mm 1 m/S 773 mmHg 65%
    20:00 +10°C° 0 mm 1 m/S 773 mmHg 66%
    21:00 +9°C° 0 mm 2 m/S 773 mmHg 68%
    22:00 +8°C° 0 mm 2 m/S 773 mmHg 69%
    23:00 +8°C° 0 mm 2 m/S 773 mmHg 71%

    26 September, Mittwoch

    Zeit Temperatur Niederschläge Wind Luftdruck Luftfeuchtigkeit
    00:00 +8°C° 0 mm 2 m/S 773 mmHg 72%
    01:00 +8°C° 0 mm 2 m/S 773 mmHg 74%
    02:00 +8°C° 0 mm 2 m/S 772 mmHg 74%
    03:00 +8°C° 0 mm 3 m/S 772 mmHg 75%
    04:00 +8°C° 0 mm 3 m/S 772 mmHg 76%
    05:00 +8°C° 0 mm 3 m/S 771 mmHg 76%
    06:00 +8°C° 0 mm 3 m/S 771 mmHg 75%
    07:00 +8°C° 0 mm 3 m/S 771 mmHg 75%
    08:00 +10°C° 0 mm 4 m/S 771 mmHg 67%
    09:00 +12°C° 0 mm 4 m/S 770 mmHg 60%
    10:00 +14°C° 0 mm 5 m/S 770 mmHg 52%
    11:00 +15°C° 0 mm 5 m/S 770 mmHg 49%
    12:00 +16°C° 0 mm 6 m/S 769 mmHg 46%
    13:00 +17°C° 0 mm 6 m/S 768 mmHg 43%
    14:00 +17°C° 0 mm 6 m/S 768 mmHg 43%
    15:00 +17°C° 0 mm 6 m/S 767 mmHg 43%
    16:00 +17°C° 0 mm 6 m/S 767 mmHg 43%
    17:00 +16°C° 0 mm 5 m/S 767 mmHg 46%
    18:00 +15°C° 0 mm 5 m/S 766 mmHg 49%
    19:00 +14°C° 0 mm 5 m/S 766 mmHg 52%
    20:00 +14°C° 0 mm 5 m/S 766 mmHg 52%
    21:00 +14°C° 0 mm 5 m/S 766 mmHg 53%
    22:00 +14°C° 0 mm 5 m/S 766 mmHg 53%
    23:00 +14°C° 0 mm 5 m/S 766 mmHg 55%

    27 September, Donnerstag

    Zeit Temperatur Niederschläge Wind Luftdruck Luftfeuchtigkeit
    00:00 +13°C° 0 mm 5 m/S 766 mmHg 57%
    01:00 +13°C° 0 mm 5 m/S 766 mmHg 60%
    02:00 +13°C° 0 mm 5 m/S 766 mmHg 62%
    03:00 +13°C° 0 mm 5 m/S 765 mmHg 65%
    04:00 +12°C° 0 mm 4 m/S 765 mmHg 68%
    05:00 +12°C° 0 mm 4 m/S 765 mmHg 69%
    06:00 +12°C° 0 mm 4 m/S 765 mmHg 70%
    07:00 +12°C° 0 mm 4 m/S 765 mmHg 72%
    08:00 +14°C° 0 mm 4 m/S 765 mmHg 68%
    09:00 +15°C° 0 mm 5 m/S 765 mmHg 65%
    10:00 +17°C° 0 mm 5 m/S 765 mmHg 61%
    11:00 +19°C° 0 mm 5 m/S 765 mmHg 59%
    12:00 +21°C° 0 mm 5 m/S 765 mmHg 57%
    13:00 +22°C° 0 mm 5 m/S 764 mmHg 55%
    14:00 +22°C° 0 mm 5 m/S 764 mmHg 55%
    15:00 +22°C° 0 mm 5 m/S 763 mmHg 55%
    16:00 +22°C° 0 mm 5 m/S 763 mmHg 55%
    17:00 +21°C° 0 mm 4 m/S 763 mmHg 60%
    18:00 +19°C° 0 mm 3 m/S 763 mmHg 65%
    19:00 +17°C° 0 mm 3 m/S 763 mmHg 70%
    20:00 +17°C° 0 mm 3 m/S 762 mmHg 69%
    21:00 +17°C° 0 mm 3 m/S 762 mmHg 69%
    22:00 +16°C° 0 mm 3 m/S 762 mmHg 69%
    23:00 +16°C° 0 mm 3 m/S 762 mmHg 69%

    28 September, Freitag

    Zeit Temperatur Niederschläge Wind Luftdruck Luftfeuchtigkeit
    00:00 +14°C° 0 mm 3 m/S 761 mmHg 70%
    01:00 +14°C° 0 mm 3 m/S 761 mmHg 71%
    02:00 +13°C° 0 mm 3 m/S 761 mmHg 73%
    03:00 +13°C° 0 mm 3 m/S 761 mmHg 75%
    04:00 +13°C° 0 mm 2 m/S 761 mmHg 77%
    05:00 +13°C° 0 mm 2 m/S 761 mmHg 80%
    06:00 +13°C° 0 mm 2 m/S 761 mmHg 82%
    07:00 +13°C° 0 mm 2 m/S 761 mmHg 84%
    08:00 +14°C° 0 mm 2 m/S 761 mmHg 80%
    09:00 +14°C° 0 mm 3 m/S 762 mmHg 76%
    10:00 +16°C° 0 mm 3 m/S 762 mmHg 72%
    11:00 +16°C° 0 mm 3 m/S 762 mmHg 68%
    12:00 +17°C° 0 mm 3 m/S 762 mmHg 65%
    13:00 +17°C° 0 mm 2 m/S 762 mmHg 61%
    14:00 +17°C° 0 mm 2 m/S 762 mmHg 58%
    15:00 +17°C° 0 mm 2 m/S 762 mmHg 55%
    16:00 +17°C° 0 mm 2 m/S 762 mmHg 52%
    17:00 +16°C° 0 mm 2 m/S 763 mmHg 55%
    18:00 +14°C° 0 mm 2 m/S 763 mmHg 57%
    19:00 +13°C° 0 mm 2 m/S 763 mmHg 59%
    20:00 +13°C° 0 mm 2 m/S 764 mmHg 61%
    21:00 +12°C° 0 mm 2 m/S 764 mmHg 63%
    22:00 +12°C° 0 mm 2 m/S 764 mmHg 65%
    23:00 +10°C° 0 mm 2 m/S 764 mmHg 67%
    Mehr zeigen